DELTA 1 DEB, 27788

Orbit data source: Space-Track

DELTA 1 DEB, 27788 is space debris in LEO originally from a launch on Sat, 06 Nov 1965 UTC launched from the Air Force Eastern Test Range (AFETR). Debris objects in space refer to the collection of defunct objects orbiting the Earth. Examples of debris include non-operational satellites, rocket bodies, and fragments generated from explosions, collisions, or faulty payload assembly.

Loading next visibility...
DELTA 1 DEB details
Identifier
27788, 1965-089E
Orbit
LEO
Last TLE update21 hours ago
Origin
Flag of USGSFC (US)
ManufacturerUnknown
MissionSpacecraft
Bus & MotorUnknown
MassUnknown
Launch date (UTC)
1965-11-06 (59 years ago)
Launch vehicleUnknown
Launch site
Air Force Eastern Test Range (AFETR)
Object type
Payload
Rocket body
Debris
Shape & HBRUnknown
Radar Cross SectionSmall (<0.1 m²)

Expand to show TLE details & history

TLE from 21 hours ago
0 DELTA 1 DEB
1 27788U 65089E   24355.68815587  .00000327  00000-0  19033-2 0  9997
2 27788  59.3860 334.6826 0615575 217.0709 321.5455 12.28013798547116
Epoch: 2024-12-20T16:30Z
Definitive object data (Epoch: 2024-12-20T16:30:56.667Z)
Latitude5.14849°
Longitude174.15588°
Altitude1,188.603 km
Speed7.428 km/s
True Right ascension10h 06m 34s
True Declination5° 07' 11"
Sunlit
Object was in daylight at TLE epoch
Visualization TLE readout
Latitude54.94024°
Longitude52.19015°
Altitude1,960.094 km
Speed6.746 km/s
Apparent Right ascension01h 13m 27s
Apparent Declination16° 01' 12"
Sunlit
Object is in daylight
Visualization observer readout
Local Sidereal Time12:29:08
Azimuth347.261° N
Elevation-33.119°
Doppler factor1
Orbital elements
Apogee altitude2,045.692 km
Perigee altitude1,068.732 km
Semi-major axis7,935.349 km
Eccentricity0.0615575
Inclination59.386°
RAAN334.6826°
Arg. of periapsis217.0709°
True anomaly316.88337°
Mean anomaly321.5455°
Eccentric anomaly319.24289°
Mean motion3.07039 °/min
BSTAR0.0019033
Orbital period117.25 mins
Loading maneuver chart data...
Loading historical data...
Loading historical data...
Loading historical data...
Loading historical data...
Loading historical data...
Loading historical data...
Loading historical data...

DELTA 1 DEB Visibility forecast

Observer location: undefined°, undefined

Span
Click to sort rows by Start time (UTC) header in descending order
Start Az.
Max El. time (UTC)
Max El. Az.
Max El.
End time (UTC)
End Az.
17 mins2024-12-21 22:52:10.210Z160.16° S2024-12-21 23:00:10.210Z113.809° SE25.826°2024-12-21 23:09:10.210Z60.124° ENE
22 mins2024-12-22 00:51:10.210Z217.605° SW2024-12-22 01:02:10.210Z338.487° N44.994°2024-12-22 01:13:10.210Z40.377° NE
19 mins2024-12-22 02:56:10.210Z268.606° W2024-12-22 03:06:10.210Z332.407° NNW32.099°2024-12-22 03:15:10.210Z34.734° NE
16 mins2024-12-22 05:04:10.210Z310.943° NW2024-12-22 05:12:10.210Z0.253° NNE23.981°2024-12-22 05:20:10.210Z53.826° ENE
16 mins2024-12-22 07:09:10.210Z325.583° NNW2024-12-22 07:18:10.210Z33.521° NE32.581°2024-12-22 07:25:10.210Z93.926° ESE
16 mins2024-12-22 09:12:10.210Z316.551° NNW2024-12-22 09:21:10.210Z222.408° SW43.664°2024-12-22 09:28:10.210Z153.549° SSE
6 mins2024-12-22 11:18:10.210Z276.412° WNW2024-12-22 11:21:10.210Z254.916° W13.194°2024-12-22 11:24:10.210Z232.4° WSW
|